DELTA 1 R/B

基本信息
目录编号:
4377
目录名称:
DELTA 1 R/B
国际标识:
1970-032B
轨道中心:
EARTH
物体状态:
在轨
发射日期:
1970-04-23 UTC
国别:
美国 (US)
轨道信息
数据来源: 国际轨道数据
星历时间: 2026-07-13T19:43:01+0800
半长轴: 15383.096km
偏心率: 0.5682958
轨道倾角: 26.739°
近地点辐角: 347.028°
升交点赤经: 10.783°
平近点角: 2.912°
近地点: 262.81km
远地点: 17747.108km
周期: 316.465分钟
每日圈数: 4.55027
详细信息
发射场:
AFETR
轨道高度:
LEO
数据来源:
AOE Integration Group
参考系:
TEME
时间系统:
UTC
历元类型:
SGP4
2D轨道图
3D轨道图
轨道高度分析图
轨道倾角分析图
轨道综合分析图
查看轨道综合分析图